Location: Central Coast NSW, Australia
(33.2407°S, 151.4316°E)
Time: 04:08:52
(UTC+10:00)

Envisat - Pass Details

Date: 01 April 2019
Orbit: 764 x 766 km, 98.2° (Epoch: 24 April)

Event Time Altitude Azimuth Distance (km) Brightness Sun altitude
Rises 21:23:02 0° 186° (S) 3,266 6.5 -32.4°
Reaches altitude 10° 21:25:56 10° 203° (SSW) 2,332 5.9 -33.0°
Maximum altitude 21:29:31 19° 247° (WSW) 1,758 5.5 -33.7°
Drops below altitude 10° 21:33:05 10° 292° (WNW) 2,312 6.0 -34.4°
Sets 21:35:57 0° 309° (NW) 3,230 6.6 -34.9°
